Location: Azul
(36.7830°S, 59.8500°W)
Time: 21:04:19
(UTC-03:00)

ISS - Pass Details

Date: 15 February 2020
Orbit: 415 x 422 km, 51.6° (Epoch: 27 February)

Event Time Altitude Azimuth Distance (km) Brightness Sun altitude
Exits shadow 04:37:34 69° 74° (ENE) 456 -3.6 -21.0°
Drops below altitude 10° 04:40:37 10° 52° (NE) 1,503 -0.8 -20.5°
Sets 04:42:42 0° 50° (NE) 2,361 0.3 -20.2°
